Miscellaneous Local Product
Issued by NWS Hastings, NE

Home | Current Version | Previous Version | Graphics & Text | Print | Product List | Glossary On
Versions: 1 2 3 4 5 6 7 8 9 10 11 12 13 14 15 16 17 18 19 20 21 22 23 24 25 26 27 28 29 30 31 32 33 34 35 36 37 38 39 40 41 42 43 44 45 46 47 48 49 50
902
AXUS43 KGID 160202
MISGRI

GID CWA HOURLY WEATHER ROUNDUP
NATIONAL WEATHER SERVICE HASTINGS NE
800 PM CST FRI DEC 15 2017

NOTE: "FAIR" INDICATES FEW OR NO CLOUDS BELOW 12,000 FEET WITH NO
SIGNIFICANT WEATHER AND/OR OBSTRUCTIONS TO VISIBILITY.

...SOUTH CENTRAL NEBRASKA...

CITY           SKY/WX    TMP DP  RH WIND       PRES   REMARKS
GRAND ISLAND   CLOUDY    43  21  41 SW15      29.77F
KEARNEY        CLOUDY    41  17  38 SW8       29.78F
HASTINGS       CLOUDY    43  16  33 SW9       29.78F
ORD            CLOUDY    40  24  53 SW13      29.72F WCI  32
YORK           PTCLDY    37  25  60 SW12      29.78F WCI  30
AURORA         CLOUDY    39  23  53 SW13      29.77F WCI  31
LEXINGTON      CLOUDY    44  15  30 SW10      29.77F
HOLDREGE       CLOUDY    43  17  35 SW12      29.79F
HEBRON         PTCLDY    43  24  46 S13       29.82F

...NEBRASKA PANHANDLE...

CITY           SKY/WX    TMP DP  RH WIND       PRES   REMARKS
CHADRON        CLOUDY    40  18  41 SW6       29.72F
ALLIANCE       CLOUDY    44  16  32 W10       29.76F
SCOTTSBLUFF    CLOUDY    49  10  20 W17       29.78F
SIDNEY         CLOUDY    31  10  41 W8        29.81F WCI  23

...WESTERN AND NORTH CENTRAL NEBRASKA...

CITY           SKY/WX    TMP DP  RH WIND       PRES   REMARKS
VALENTINE      CLOUDY    41  24  51 W5        29.70R
AINSWORTH      CLOUDY    39  27  61 SW12      29.69S WCI  32
ONEILL         CLOUDY    37  30  75 SW9       29.69F WCI  31
BROKEN BOW     CLOUDY    42  21  43 W6        29.74F
IMPERIAL       CLOUDY    39  10  30 W8        29.80F WCI  33
NORTH PLATTE   CLOUDY    33  18  53 NW5       29.78S WCI  29
MCCOOK         CLOUDY    38  11  32 W9        29.80F WCI  31

...EASTERN NEBRASKA...

CITY           SKY/WX    TMP DP  RH WIND       PRES   REMARKS
NORFOLK        PTCLDY    41  27  57 SW9       29.71F
SO SIOUX CITY  CLOUDY    39  27  62 S7        29.72F WCI  34
TEKAMAH        PTCLDY    34  22  61 S10       29.77F WCI  26
COLUMBUS       CLOUDY    41  26  55 SW6       29.76F
ALBION         PTCLDY    40  27  59 CALM      29.74S
OMAHA EPPLEY   PTCLDY    42  24  49 S10       29.79F
OFFUTT AFB     CLEAR     29  21  72 CALM      29.79F
MILLARD        CLEAR     41  26  54 SE5       29.80F
LINCOLN        CLEAR     44  24  45 SW15G25   29.79F
NEBRASKA CITY  CLEAR     42  26  52 SW14      29.81F
BEATRICE       CLOUDY    42  25  49 S13       29.83F
FALLS CITY     CLOUDY    42  24  49 S17       29.86F

...NORTHERN KANSAS...

CITY           SKY/WX    TMP DP  RH WIND       PRES   REMARKS
GOODLAND       CLOUDY    44  12  27 SW16      29.84F
HILL CITY      CLOUDY    48  16  27 SW14      29.85F
NORTON         CLEAR     37   7  28 SW10      29.82F WCI  30
PHILLIPSBURG   CLEAR     45  16  31 SW10      29.84F
HAYS           CLEAR     41  18  39 SW15      29.89F
RUSSELL        CLEAR     41  20  43 S15       29.88F
CONCORDIA      CLOUDY    44  21  40 S15       29.86F
SALINA         CLEAR     43  23  45 S14       29.91F
TOPEKA         CLEAR     43  26  51 S9        29.94F



USA.gov is the U.S. government's official web portal to all federal, state and local government web resources and services.